This is the latest recevied weather packets stored in our database for station/object KN6CRX. If no packets are shown the sender has not sent any weather packets the latest 10 day(s).
| Time | Temp. | Humidity | Pressure | Rain* | Wind** | Luminosity | Snow |
|---|---|---|---|---|---|---|---|
| 1787589115 | 25.56° C | 43% | 1024 hPa | 0 mm | - | 342 W/m² | - |
| 1787588815 | 25° C | 44% | 1023.8 hPa | 0 mm | - | 570 W/m² | - |
| 1787588511 | 23.89° C | 45% | 1024.1 hPa | 0 mm | - | 545 W/m² | - |
| 1787588206 | 23.89° C | 46% | 1023.9 hPa | 0 mm | - | 517 W/m² | - |
| 1787587901 | 23.89° C | 47% | 1024 hPa | 0 mm | - | 500 W/m² | - |
| 1787587596 | 23.33° C | 47% | 1023.9 hPa | 0 mm | - | 484 W/m² | - |
| 1787587291 | 22.78° C | 49% | 1024 hPa | 0 mm | - | 460 W/m² | - |
| 1787586991 | 22.78° C | 49% | 1024 hPa | 0 mm | - | 435 W/m² | - |
| 1787586685 | 22.78° C | 51% | 1024.1 hPa | 0 mm | - | 425 W/m² | - |
| 1787586381 | 22.22° C | 52% | 1024.1 hPa | 0 mm | - | 404 W/m² | - |
| 1787586077 | 21.67° C | 54% | 1024.3 hPa | 0 mm | - | 389 W/m² | - |
| 1787585773 | 20.56° C | 56% | 1024.3 hPa | 0 mm | - | 375 W/m² | - |
| 1787585467 | 20.56° C | 58% | 1023.9 hPa | 0 mm | - | 354 W/m² | - |
| 1787585162 | 20.56° C | 56% | 1023.9 hPa | 0 mm | - | 316 W/m² | - |
| 1787584857 | 20° C | 59% | 1023.8 hPa | 0 mm | - | 57 W/m² | - |
| 1787584556 | 20° C | 60% | 1023.9 hPa | 0 mm | - | 55 W/m² | - |
| 1787584250 | 20° C | 60% | 1023.9 hPa | 0 mm | - | 50 W/m² | - |
| 1787583949 | 20° C | 65% | 1023.9 hPa | 0 mm | - | 47 W/m² | - |
| 1787583645 | 20° C | 62% | 1023.9 hPa | 0 mm | - | 47 W/m² | - |
| 1787583344 | 19.44° C | 61% | 1023.9 hPa | 0 mm | - | 47 W/m² | - |
| 1787583043 | 19.44° C | 62% | 1023.9 hPa | 0 mm | - | 49 W/m² | - |
| 1787582739 | 18.89° C | 61% | 1023.9 hPa | 0 mm | - | 58 W/m² | - |
| 1787582435 | 18.33° C | 66% | 1024 hPa | 0 mm | - | 50 W/m² | - |
| 1787582130 | 18.33° C | 66% | 1023.8 hPa | 0 mm | - | 41 W/m² | - |
| 1787581830 | 17.78° C | 67% | 1023.8 hPa | 0 mm | - | 41 W/m² | - |
* Rain latest hour (hover to see other rain measurements)
** Current wind speed in m/s (hover to see current wind gust speed)